#timestamp,LO_Frequency,Hit 
1503187215.8,286046999.9,N
1503187235.7,286046999.4,N
1503187255.5,286046997.0,N
1503187275.3,286046997.0,N
1503187295.2,286047002.1,N
1503187315.9,286047007.6,N
1503187335.7,286047008.3,N
1503187355.6,286047003.8,N
1503187375.4,286047003.9,N
1503187395.2,286046998.6,N
1503187415.0,286047001.6,N
1503187416.0,286047001.6,N
1503187435.8,286047002.7,N
1503187455.6,286047003.7,N
1503187475.4,286047001.8,N
1503187495.3,286047001.7,N
1503187515.1,286046999.7,N
1503187535.8,286047000.1,N
1503187555.7,286047003.4,N
1503187575.5,286047006.8,N
1503187595.3,286047006.0,N
1503187615.2,286046999.9,N
1503187635.9,286046998.6,N
1503187655.7,286046998.6,N
1503187675.6,286047001.0,N
1503187695.4,286047004.4,N
1503187715.2,286047006.0,N
1503187735.1,286047005.7,N
1503187736.0,286047005.7,N
1503187755.8,286047003.8,N
1503187775.6,286047003.6,N
1503187795.4,286047001.5,N
1503187815.3,286047003.8,N
1503187835.1,286047003.0,N
1503187855.8,286047004.5,N
1503187875.7,286047003.2,N
1503187895.5,286047003.2,N
1503187915.3,286047003.5,N
1503187935.2,286047003.6,N
1503187955.9,286047005.2,N
1503187975.7,286047008.9,P
1503187995.6,286047005.2,N
1503188015.4,286047005.7,N
1503188035.2,286047008.6,P
1503188055.1,286047001.4,N
1503188056.0,286047001.4,N
1503188075.8,286047001.5,N
1503188095.6,286047000.9,N
1503188115.5,286046999.0,N
1503188135.3,286046999.3,N
1503188155.1,286046999.9,N
1503188175.9,286047002.0,N
1503188195.7,286047000.7,N
1503188215.5,286046996.6,N
1503188235.4,286047002.5,N
1503188255.2,286047005.9,N
1503188275.0,286047005.1,N
1503188275.9,286047005.1,N
1503188295.8,286047004.3,N
1503188315.6,286047002.4,N
1503188335.4,286047004.0,N
1503188355.2,286047004.4,N
1503188375.1,286047006.0,N
1503188376.0,286047006.0,N
1503188395.8,286047005.1,N
1503188415.6,286047004.2,N
1503188435.5,286047003.8,N
1503188455.3,286047004.3,N
1503188475.1,286047000.1,N
1503188495.9,286046999.1,N
1503188515.7,286046996.6,N
1503188535.5,286046997.4,N
1503188555.4,286046999.5,N
1503188575.2,286046998.7,N
1503188595.0,286047001.7,N
1503188595.9,286047001.7,N
1503188615.8,286047005.8,N
1503188635.6,286047001.5,N
1503188655.4,286046999.9,N
1503188675.2,286047002.5,N
1503188695.1,286047001.5,N
1503188696.0,286047001.5,N
1503188715.8,286047001.2,N
1503188735.6,286046999.2,N
1503188755.5,286046999.4,N
1503188775.3,286046997.2,N
1503188795.1,286046998.7,N
1503188815.9,286046996.5,N
1503188835.7,286046994.9,N
1503188855.5,286046995.9,N
1503188875.4,286046993.7,N
1503188895.2,286046999.6,N
1503188915.0,286046998.9,N
1503188915.9,286046998.9,N
1503188935.8,286046996.9,N
1503188955.6,286046997.0,N
1503188975.4,286046999.4,N
1503188995.3,286046999.6,N
1503189015.1,286046996.7,N
1503189016.0,286046996.7,N
1503189035.8,286046996.9,N
1503189055.7,286046998.7,N
1503189075.5,286046997.6,N
1503189095.3,286046995.1,N
1503189115.1,286046999.6,N
1503189135.9,286046999.2,N
1503189155.7,286047001.1,N
1503189175.5,286046999.7,N
1503189195.4,286047000.3,N
1503189215.2,286047000.9,N
1503189235.0,286047000.2,N
1503189235.9,286047000.2,N
1503189255.8,286046998.3,N
1503189275.6,286046997.1,N
1503189295.4,286046996.7,N
1503189315.3,286046994.9,N
1503189335.1,286046995.6,N
1503189336.0,286046995.6,N
1503189355.8,286046998.8,N
1503189375.7,286047000.6,N
1503189395.5,286047002.3,N
1503189415.3,286046998.1,N
1503189435.2,286047001.8,N
1503189455.9,286047004.0,N
1503189475.7,286047003.5,N
1503189495.5,286047003.0,N
1503189515.4,286047003.8,N
1503189535.2,286047002.6,N
1503189555.0,286046999.8,N
1503189555.9,286046999.8,N
1503189575.8,286047002.3,N
1503189595.6,286047004.5,N
1503189615.4,286047005.0,N
1503189635.3,286047009.1,P
1503189655.1,286047004.7,N
1503189675.8,286047006.2,N
1503189695.7,286047009.1,N
1503189715.5,286047004.7,N
1503189735.3,286047004.4,N
1503189755.2,286047002.5,N
1503189775.9,286047002.0,N
1503189795.7,286047004.1,N
1503189815.6,286047004.0,N
1503189835.4,286047001.7,N
1503189855.2,286047004.4,N
1503189875.0,286047002.4,N
1503189876.0,286047002.4,N
1503189895.8,286047001.1,N
1503189915.6,286047002.2,N
1503189935.4,286047003.9,N
1503189955.3,286047001.7,N
1503189975.1,286047003.1,N
1503189995.8,286047005.0,N
1503190015.7,286047006.8,N
1503190035.5,286047003.1,N
1503190055.3,286047005.7,N
1503190075.2,286047005.8,N
1503190095.9,286047003.1,N
1503190115.7,286047001.3,N
1503190135.6,286047003.2,N
1503190155.4,286047008.7,P
1503190175.2,286047008.3,P
1503190195.1,286047004.7,N
1503190196.0,286047004.7,N
1503190215.8,286047003.4,N
1503190235.6,286047008.4,P
1503190255.5,286047006.0,P
1503190275.3,286047000.4,N
1503190295.1,286046996.9,N
1503190315.9,286046998.8,N
1503190335.7,286046997.3,N
1503190355.5,286046995.6,N
1503190375.4,286046996.4,N
1503190395.2,286046992.1,N
1503190415.0,286046991.9,N
1503190415.9,286046991.9,N
1503190435.7,286046994.2,N
1503190455.6,286046995.6,N
1503190475.4,286046999.8,N
1503190495.2,286046998.2,N
1503190515.1,286046998.8,N
1503190516.0,286046998.8,N
1503190535.8,286047002.2,N
1503190555.6,286047004.1,N
1503190575.5,286047004.1,N
1503190595.3,286047000.5,N
1503190615.1,286046997.2,N
1503190635.9,286047000.5,N
1503190655.7,286047000.7,N
1503190675.5,286047002.6,N
1503190695.4,286047002.7,N
1503190715.2,286047002.4,N
1503190735.0,286047001.9,N
1503190735.9,286047001.9,N
1503190755.7,286047003.0,N
1503190775.6,286047001.7,N
1503190795.4,286047003.3,N
